Regional Weather Roundup
Issued by NWS

Home | Current Version | Previous Version | Text Only | Print | Product List | Glossary Off
Versions: 1 2 3 4 5 6 7 8 9 10 11 12 13 14 15 16 17 18 19 20 21 22 23 24 25 26 27 28 29 30 31 32 33 34 35 36 37 38 39 40 41 42 43 44 45 46 47 48 49 50

000
ASUS43 KFSD 280210
RWRSD

WEATHER ROUNDUP FOR SOUTH DAKOTA
NATIONAL WEATHER SERVICE SIOUX FALLS SD
900 PM CDT FRI MAY 27 2016

NOTE: "FAIR" INDICATES FEW OR NO CLOUDS BELOW 12,000 FEET WITH NO
SIGNIFICANT WEATHER AND/OR OBSTRUCTIONS TO VISIBILITY.


SDZ001>005-009-010-012>017-280300-
NORTHWEST AND NORTH CENTRAL SOUTH DAKOTA

CITY           SKY/WX    TMP DP  RH WIND       PRES   REMARKS
BUFFALO          N/A     63  49  60 CALM      29.77R
FAITH            N/A     60  48  64 CALM      29.81S
MOBRIDGE       MOCLDY    66  53  63 CALM      29.76S
$$

SDZ012>016-024>037-041>051-057-063-072>074-280300-
SOUTHWEST AND SOUTH CENTRAL SOUTH DAKOTA

CITY           SKY/WX    TMP DP  RH WIND       PRES   REMARKS
RAPID CTY ARPT CLOUDY    59  49  69 S7        29.84R
PIERRE         CLEAR     60  53  77 NW9       29.75S
CUSTER         CLOUDY    51  42  71 CALM      29.90S
ELLSWORTH AFB  CLOUDY    60  49  66 S6        29.83S
PHILIP         CLEAR     56  50  80 NW7       29.78F
PINE RIDGE     CLOUDY    57  48  72 NW5       29.83S
WINNER         FAIR      63  54  72 NE6       29.77R
$$

SDZ004>011-016>023-039-040-280300-
NORTHEAST SOUTH DAKOTA

CITY           SKY/WX    TMP DP  RH WIND       PRES   REMARKS
ABERDEEN       CLOUDY    64  59  83 N7        29.75S
WATERTOWN      CLEAR     61  55  81 N7        29.77R
BROOKINGS      CLOUDY    67  57  70 N6        29.75R
SISSETON         N/A     63  58  83 N10       29.75S
$$

SDZ017-020-022-023-036>040-048>070-280300-
SOUTHEAST SOUTH DAKOTA

CITY           SKY/WX    TMP DP  RH WIND       PRES   REMARKS
SIOUX FALLS    MOCLDY    66  57  72 NE7       29.72S
HURON          CLEAR     63  59  87 N8        29.74R
CHAMBERLAIN    CLOUDY    66  58  74 E3        29.76R
MITCHELL       PTCLDY    68  59  73 N5        29.73S
YANKTON        CLOUDY    68  61  77 N8        29.70R
$$

ABBREVIATIONS USED IN REMARKS
   TC - TEMPERATURE IN CELSIUS
  WCI - WIND CHILL INDEX
   HX - HEAT INDEX
  VSB - VISIBILITY





USA.gov is the U.S. government's official web portal to all federal, state and local government web resources and services.